Location: Festilli
(46.4000°N, 11.6667°E)
Time: 16:29:12
(UTC+00:00)

SL-8 Rocket - Pass Details

Date: 03 March 2021
Orbit: 957 x 991 km, 82.9° (Epoch: 15 April)

Event Time Altitude Azimuth Distance (km) Brightness Sun altitude
Rises 18:06:01 0° 161° (SSE) 3,669 6.8 -11.8°
Reaches altitude 10° 18:08:41 10° 154° (SSE) 2,721 6.1 -12.2°
Maximum altitude 18:14:21 38° 88° (E) 1,439 4.4 -13.2°
Drops below altitude 10° 18:20:00 10° 23° (NNE) 2,716 6.2 -14.2°
Sets 18:22:40 0° 16° (NNE) 3,663 6.9 -14.6°
